Wind_Speed
37 39 38 37 38 38 36 37 35 35 35 34 33 32 30 29 27 25 25 24 23 22 20 20 19 19 19 20 21 21 23 24 26 26 26 27 27 28 28 28 28 28 27
41 40 36 37 37 37 37 37 36 37 37 37 34 33 32 30 29 26 25 25 24 22 21 21 21 21 21 21 22 22 23 24 26 26 26 26 26 27 27 27 27 27 27
36 35 34 34 35 37 38 39 37 37 38 37 35 34 33 32 29 27 26 26 25 24 24 23 23 23 23 23 23 23 24 24 26 27 27 27 26 26 26 27 26 26 26
29 33 35 35 35 36 37 36 35 36 36 36 36 34 34 32 30 28 27 26 26 26 26 26 26 26 26 26 25 25 25 26 26 27 28 28 28 27 25 26 26 25 25
27 31 33 31 33 36 36 37 35 36 37 37 37 35 35 33 31 29 28 28 28 29 29 29 30 30 30 29 28 28 27 27 27 28 28 29 29 28 26 24 26 26 25
30 31 31 32 34 34 34 36 37 36 37 37 38 36 36 35 33 31 30 30 31 31 32 32 33 33 32 32 31 30 30 29 28 28 28 29 29 28 27 24 24 26 27
31 31 32 33 33 34 35 36 37 37 37 39 40 38 37 36 36 35 33 33 34 34 35 35 35 35 34 34 33 32 32 30 30 29 29 28 28 28 27 26 25 26 27
33 33 34 35 35 36 38 40 41 42 43 43 43 42 42 41 40 39 38 37 37 37 38 37 38 37 37 36 35 34 33 32 31 31 30 29 28 28 27 26 26 25 26
37 37 38 39 40 42 43 45 46 47 48 48 49 49 48 47 46 45 44 43 41 41 41 40 40 39 39 38 37 35 34 33 32 31 30 29 28 28 27 27 26 26 26
39 41 42 44 45 47 49 50 51 52 53 54 55 55 55 54 53 52 51 49 47 46 45 44 42 41 41 40 39 37 36 34 33 32 31 29 28 28 27 27 26 26 25
44 46 47 48 50 51 53 54 56 57 58 59 59 60 60 60 59 58 57 55 53 51 50 48 46 43 42 42 40 39 37 36 34 33 32 30 29 29 28 27 27 26 26
49 51 52 53 54 55 56 58 59 60 61 62 63 63 64 64 64 63 62 61 59 57 54 52 49 47 45 44 42 41 39 37 35 34 32 31 30 29 29 27 26 26 26
52 54 55 56 57 58 59 60 61 62 63 64 64 65 65 66 66 66 65 65 63 61 59 57 54 52 49 47 45 43 41 38 37 35 33 32 31 30 29 28 26 26 25
56 57 58 59 61 62 63 64 65 66 67 68 69 69 70 70 70 70 69 68 68 66 64 62 59 56 53 50 48 46 43 41 39 37 35 33 31 30 29 28 27 26 25
60 62 63 65 67 68 69 69 70 70 71 71 72 74 75 75 75 75 75 75 75 73 70 67 65 61 57 55 52 49 47 44 41 39 37 35 32 31 30 29 27 26 25
65 67 68 70 71 71 71 70 69 69 69 68 69 69 71 72 74 76 77 78 79 78 77 75 72 68 65 62 58 54 51 48 45 43 39 36 34 32 31 30 28 27 26
69 71 71 71 69 68 66 64 61 59 56 54 53 53 55 57 60 63 67 70 73 75 76 76 76 73 70 66 62 58 55 51 47 43 41 38 35 33 32 31 29 28 26
69 69 68 66 63 60 57 53 50 46 42 39 37 37 36 37 39 41 44 47 51 56 61 65 68 69 68 67 65 60 56 53 49 44 41 38 35 33 33 32 30 28 27
66 65 62 58 53 48 45 42 39 37 34 33 33 32 31 31 30 31 31 33 34 37 41 45 50 53 56 58 58 57 55 53 49 44 41 39 36 34 33 32 30 27 26
62 58 54 49 44 41 39 37 35 34 34 34 33 33 32 31 30 30 29 28 28 29 31 32 34 38 42 45 48 50 51 50 47 43 40 38 36 34 33 32 29 27 25
55 51 48 45 42 40 39 38 38 38 38 38 37 37 36 34 33 31 29 28 27 27 27 26 28 30 33 37 41 43 45 46 45 41 39 37 35 33 32 31 29 26 25
50 48 46 45 43 42 42 41 41 42 42 41 40 39 38 36 34 32 30 28 27 25 24 23 24 25 28 32 37 40 42 43 42 40 39 37 35 32 30 29 27 25 23
49 48 47 46 45 44 44 45 45 45 44 42 41 40 39 37 35 33 31 29 27 25 24 22 21 22 25 28 33 38 41 42 42 42 39 36 34 31 29 27 24 22 21
49 49 49 48 47 47 46 47 46 46 45 44 42 41 39 37 35 33 31 30 28 26 25 23 21 21 21 24 29 33 40 42 42 41 39 36 33 30 27 25 24 21 20
51 51 50 49 49 48 48 47 46 45 44 43 41 39 38 35 33 32 31 30 28 27 25 23 22 21 20 21 25 30 35 41 42 40 37 35 33 29 26 24 22 20 19
51 51 50 50 49 48 46 45 44 43 41 40 39 38 37 35 33 32 30 29 28 27 25 23 23 22 20 21 23 26 31 38 41 39 37 35 31 28 26 24 23 23 22
Wind_Direction
276 279 279 279 283 283 284 286 285 289 289 291 293 293 291 291 290 290 286 282 280 279 280 282 286 289 293 297 301 305 307 308 308 307 306 303 297 291 286 283 281 277 274
278 280 278 278 279 280 281 283 282 285 288 289 290 292 291 291 289 287 283 278 275 275 276 280 284 288 292 296 299 303 307 309 310 309 309 307 302 295 289 284 280 274 272
275 275 278 274 276 277 278 279 283 283 285 287 288 288 289 290 287 284 279 275 273 273 274 278 282 286 289 293 296 301 304 308 310 311 311 310 307 299 293 286 280 274 270
277 277 277 276 276 277 277 278 279 281 284 288 288 287 288 287 285 282 278 273 272 272 275 278 282 286 288 291 294 298 301 304 307 309 311 311 309 305 297 288 281 274 269
291 284 280 276 278 279 277 280 283 283 285 286 287 287 289 289 286 282 279 276 274 275 276 279 282 285 286 289 291 294 297 300 303 305 307 309 309 307 302 291 280 274 269
293 288 284 283 282 279 279 283 285 284 284 284 286 286 288 288 286 282 280 279 277 277 277 280 281 283 284 286 288 290 292 295 298 301 304 306 307 306 303 296 284 274 268
293 290 288 287 284 282 284 285 285 284 285 285 286 287 286 286 284 282 281 280 279 278 278 280 281 282 282 283 284 286 288 291 294 297 299 303 305 305 303 297 289 279 270
295 293 290 288 286 284 285 285 285 285 285 285 285 284 284 284 283 282 280 279 278 278 278 279 280 280 280 281 281 282 283 286 289 292 294 298 302 303 302 298 292 284 275
297 295 293 291 288 287 285 284 284 283 283 282 282 282 281 281 280 280 279 277 275 275 275 276 276 276 277 278 277 277 279 281 284 287 290 293 297 300 300 297 294 288 279
296 295 293 291 289 287 286 284 283 282 281 281 280 280 280 279 277 276 276 275 273 272 271 270 270 271 272 273 273 272 274 276 279 282 285 288 293 296 296 296 294 290 282
294 292 290 288 287 285 283 282 281 280 279 279 278 278 277 277 276 275 275 274 272 271 269 268 266 267 268 268 268 268 269 271 273 277 280 284 288 293 293 293 293 290 284
293 291 290 288 286 285 283 282 281 280 278 277 277 276 276 275 274 273 272 271 270 269 268 267 265 264 263 263 263 263 265 266 269 272 276 279 283 288 290 291 292 289 285
293 292 291 291 289 287 285 283 281 280 278 277 276 275 274 274 273 272 271 270 269 268 266 265 264 262 260 260 259 261 262 262 264 268 272 275 279 284 287 288 289 288 285
297 296 296 294 291 289 287 285 283 281 279 277 275 274 273 272 271 270 270 269 268 268 267 265 264 262 260 260 259 259 259 260 262 264 268 271 275 279 283 285 286 286 284
300 300 298 295 293 291 289 287 285 283 280 278 276 274 273 271 270 269 269 268 268 267 266 265 264 262 260 259 258 257 259 260 261 262 264 267 270 274 279 282 282 283 281
303 301 299 298 296 294 292 290 288 286 284 281 279 276 274 273 271 269 268 267 267 267 265 264 263 262 260 260 258 257 258 259 259 259 261 263 265 269 274 278 278 279 277
305 304 303 301 299 298 296 295 293 292 290 288 285 282 280 277 275 273 271 269 267 266 265 264 263 261 260 259 257 257 256 256 257 256 257 258 260 265 270 274 275 274 273
308 306 305 303 302 301 299 298 297 297 296 295 295 294 292 289 286 282 279 275 271 268 266 264 262 261 259 258 257 256 255 254 253 253 254 255 257 261 266 270 272 270 267
309 307 306 305 305 304 303 301 299 297 296 295 295 295 295 296 295 293 290 284 279 275 270 265 262 258 256 254 252 250 249 248 248 248 250 251 254 258 262 265 267 266 263
311 311 310 309 308 306 304 301 300 298 296 295 295 294 294 295 295 294 292 289 285 281 276 269 262 255 249 244 242 242 241 241 241 241 243 246 249 253 258 260 262 262 257
314 313 312 311 309 306 303 301 298 297 295 293 292 292 291 291 291 290 289 287 285 282 278 273 263 254 245 237 231 230 228 229 230 232 236 239 243 247 252 254 255 256 253
316 314 312 310 307 304 301 298 296 294 293 291 290 289 288 287 286 285 284 284 282 280 277 274 267 255 244 234 224 220 217 217 219 223 226 231 235 240 245 247 248 247 246
318 315 313 310 307 304 301 298 296 294 292 290 288 286 285 283 281 281 279 277 276 275 274 271 266 258 246 233 222 216 211 209 210 214 218 223 227 232 236 239 238 237 236
319 316 314 312 309 305 301 299 297 295 292 289 287 285 283 279 276 275 274 272 271 269 269 266 262 256 247 235 223 216 210 205 203 205 209 215 220 224 227 228 228 226 223
320 318 316 314 312 308 303 301 298 295 292 289 286 283 280 276 273 271 269 267 265 263 261 259 255 251 244 233 223 218 211 203 196 196 202 207 212 216 218 216 214 210 206
323 320 318 316 313 310 306 303 300 297 294 290 287 282 276 272 270 269 266 262 260 258 255 252 246 242 238 231 222 218 210 202 193 190 194 200 204 206 207 205 203 199 196
Height
5865 5864 5862 5861 5859 5857 5853 5854 5853 5853 5852 5851 5849 5848 5847 5846 5845 5844 5843 5842 5842 5841 5840 5839 5838 5836 5835 5834 5832 5830 5828 5826 5823 5821 5820 5818 5816 5815 5814 5814 5813 5814 5814
5857 5855 5851 5851 5850 5849 5847 5845 5845 5846 5844 5843 5841 5841 5839 5839 5838 5838 5837 5836 5836 5835 5834 5833 5832 5831 5830 5828 5827 5825 5823 5820 5817 5815 5813 5812 5811 5808 5807 5806 5806 5806 5806
5850 5846 5844 5843 5842 5841 5840 5838 5839 5838 5836 5835 5833 5833 5833 5832 5832 5831 5831 5830 5830 5829 5828 5828 5827 5825 5824 5823 5821 5819 5817 5815 5812 5808 5806 5805 5804 5802 5800 5799 5798 5798 5799
5843 5842 5838 5836 5834 5834 5831 5829 5829 5830 5829 5827 5826 5826 5826 5825 5825 5824 5824 5823 5823 5823 5822 5821 5820 5819 5818 5817 5815 5813 5811 5809 5806 5803 5800 5798 5796 5794 5794 5792 5791 5791 5792
5839 5838 5831 5826 5827 5827 5824 5822 5821 5823 5823 5821 5820 5820 5819 5818 5817 5817 5816 5816 5816 5815 5815 5815 5814 5813 5812 5810 5808 5806 5804 5802 5800 5797 5794 5792 5789 5786 5786 5786 5784 5784 5785
5835 5833 5828 5825 5824 5821 5818 5817 5816 5816 5815 5814 5813 5811 5811 5810 5809 5808 5808 5808 5808 5807 5807 5807 5806 5805 5804 5803 5801 5799 5797 5795 5793 5791 5788 5786 5783 5780 5778 5778 5777 5777 5777
5830 5827 5824 5822 5819 5816 5813 5812 5810 5808 5806 5806 5805 5803 5802 5802 5801 5800 5800 5799 5799 5798 5798 5798 5797 5797 5796 5795 5793 5792 5790 5788 5786 5784 5782 5779 5777 5774 5772 5770 5770 5770 5770
5825 5822 5819 5816 5813 5811 5808 5805 5802 5800 5798 5797 5795 5794 5793 5792 5791 5791 5790 5790 5789 5789 5788 5788 5788 5787 5787 5786 5785 5784 5783 5781 5779 5777 5775 5773 5770 5768 5765 5764 5763 5763 5763
5819 5815 5812 5809 5806 5803 5800 5797 5794 5791 5788 5786 5784 5782 5781 5781 5780 5779 5779 5779 5778 5778 5778 5778 5778 5777 5777 5776 5776 5775 5774 5773 5772 5770 5768 5766 5764 5761 5759 5757 5756 5756 5755
5811 5807 5804 5800 5797 5793 5789 5786 5782 5779 5776 5773 5771 5769 5768 5767 5766 5766 5765 5765 5766 5766 5766 5766 5766 5766 5766 5766 5766 5766 5765 5764 5763 5762 5761 5759 5757 5755 5753 5751 5749 5748 5748
5802 5798 5794 5789 5785 5781 5776 5772 5769 5765 5762 5759 5757 5754 5752 5751 5750 5750 5750 5750 5751 5751 5752 5752 5753 5754 5755 5755 5755 5755 5755 5755 5754 5753 5752 5751 5750 5748 5746 5744 5743 5741 5740
5791 5786 5781 5776 5771 5766 5762 5758 5753 5749 5746 5743 5740 5737 5735 5733 5732 5731 5732 5732 5733 5735 5736 5737 5739 5740 5742 5743 5743 5744 5744 5744 5744 5744 5744 5743 5742 5741 5739 5738 5736 5734 5733
5779 5773 5767 5762 5756 5750 5745 5741 5736 5732 5728 5724 5721 5719 5716 5714 5713 5712 5712 5713 5714 5716 5718 5720 5722 5724 5727 5728 5730 5731 5732 5733 5734 5734 5734 5734 5734 5733 5732 5730 5729 5728 5727
5765 5758 5753 5746 5739 5733 5727 5722 5717 5712 5708 5704 5701 5698 5695 5694 5692 5692 5692 5692 5693 5696 5698 5701 5704 5707 5710 5713 5715 5718 5720 5721 5723 5724 5725 5725 5725 5725 5724 5723 5722 5721 5720
5750 5743 5735 5727 5720 5713 5706 5700 5694 5689 5684 5681 5678 5674 5672 5670 5670 5669 5669 5670 5671 5674 5677 5680 5684 5688 5692 5696 5700 5703 5706 5709 5711 5713 5714 5715 5716 5716 5716 5715 5715 5714 5714
5733 5724 5715 5706 5698 5690 5682 5676 5670 5664 5659 5655 5652 5649 5646 5645 5644 5644 5645 5646 5647 5649 5652 5656 5661 5666 5672 5677 5683 5687 5691 5695 5699 5701 5703 5705 5706 5707 5707 5707 5707 5707 5707
5714 5704 5694 5684 5675 5666 5659 5652 5646 5640 5635 5631 5628 5625 5623 5622 5620 5620 5620 5621 5622 5623 5626 5630 5636 5643 5649 5656 5663 5669 5675 5680 5685 5688 5692 5694 5696 5697 5698 5699 5699 5700 5700
5695 5684 5673 5664 5655 5646 5639 5633 5627 5623 5619 5615 5612 5609 5607 5605 5603 5602 5600 5600 5600 5600 5602 5605 5611 5618 5625 5633 5641 5650 5657 5664 5670 5675 5679 5682 5685 5687 5689 5690 5691 5692 5693
5678 5666 5656 5646 5638 5630 5624 5619 5614 5610 5607 5604 5601 5598 5596 5594 5591 5589 5587 5586 5585 5585 5585 5586 5590 5595 5602 5610 5619 5629 5638 5647 5655 5661 5666 5670 5674 5677 5679 5681 5683 5684 5685
5660 5649 5640 5632 5625 5619 5613 5608 5604 5600 5597 5594 5591 5589 5586 5584 5582 5580 5578 5576 5574 5573 5573 5574 5576 5579 5584 5590 5599 5609 5620 5630 5639 5646 5652 5658 5662 5666 5669 5672 5674 5677 5678
5645 5635 5627 5620 5614 5608 5603 5598 5594 5590 5586 5583 5580 5578 5576 5574 5572 5570 5569 5567 5565 5564 5563 5563 5564 5567 5570 5575 5583 5592 5603 5613 5623 5632 5639 5646 5651 5656 5660 5663 5666 5669 5671
5633 5624 5616 5609 5603 5597 5591 5586 5582 5578 5574 5570 5568 5566 5564 5562 5561 5560 5559 5558 5556 5555 5555 5555 5555 5557 5559 5564 5570 5578 5588 5599 5610 5619 5627 5634 5641 5646 5651 5655 5658 5662 5664
5622 5613 5605 5597 5591 5584 5578 5573 5568 5563 5559 5556 5554 5552 5550 5549 5549 5548 5548 5548 5548 5547 5547 5548 5548 5549 5551 5555 5560 5567 5576 5587 5598 5607 5616 5623 5631 5637 5643 5647 5651 5655 5659
5611 5602 5593 5585 5578 5571 5564 5558 5553 5548 5544 5541 5539 5537 5536 5536 5536 5536 5536 5537 5538 5539 5539 5540 5541 5542 5544 5548 5552 5558 5566 5576 5587 5597 5606 5614 5622 5629 5636 5641 5645 5650 5654
5600 5590 5581 5572 5564 5556 5549 5543 5537 5532 5528 5525 5523 5522 5521 5522 5523 5524 5525 5526 5528 5529 5531 5532 5534 5536 5538 5542 5545 5550 5558 5567 5578 5588 5598 5606 5615 5623 5629 5635 5640 5645 5650
5589 5578 5569 5559 5550 5542 5534 5528 5521 5516 5512 5510 5508 5507 5506 5508 5509 5511 5513 5515 5517 5519 5521 5524 5527 5530 5533 5536 5540 5545 5552 5561 5571 5581 5592 5601 5610 5617 5624 5630 5636 5641 5646